Temperature
16 16 16 16 15 15 15 15 15 15 15 15 15 15 15 15 15 15 15 15 15 15 15 15 15 15 15 15 15 15 15 15 15 15 15 15 15 15
15 15 15 15 15 15 15 15 15 14 14 14 14 15 15 15 15 15 15 15 15 15 15 15 15 15 15 15 15 15 15 14 14 14 14 14 14 14
15 15 15 15 15 15 14 14 14 14 14 14 14 14 14 14 14 14 14 15 15 15 15 15 15 15 15 15 15 14 14 14 14 14 14 14 14 14
15 15 15 14 14 14 14 14 14 14 14 14 14 14 14 14 14 14 14 14 14 14 14 14 14 14 14 14 14 14 14 14 14 14 14 14 14 14
15 14 14 14 14 14 14 14 14 13 13 13 13 13 13 13 14 14 14 14 14 14 14 14 14 14 14 14 14 14 14 14 14 14 14 14 14 13
14 14 14 14 14 14 13 13 13 13 13 13 13 13 13 13 13 13 13 13 13 13 13 13 13 14 14 14 14 14 14 14 14 14 13 13 13 13
14 14 14 14 13 13 13 13 13 13 12 12 12 12 12 12 12 12 12 13 13 13 13 13 13 13 13 13 13 13 13 13 13 13 13 13 13 13
14 14 13 13 13 13 13 13 12 12 12 12 12 12 12 12 12 12 12 12 12 13 12 13 13 13 13 13 13 13 13 13 13 13 13 13 13 13
13 13 13 13 13 13 13 12 12 12 12 12 12 12 12 12 12 12 12 12 12 12 12 12 12 12 13 13 13 13 13 13 13 13 13 13 12 12
13 13 13 13 12 12 12 12 12 12 12 12 11 11 11 11 11 11 11 11 12 12 12 12 12 12 12 12 12 12 12 12 12 12 12 12 12 12
13 13 12 12 12 12 12 12 12 12 11 11 11 11 11 11 11 11 11 11 11 11 11 11 11 12 12 12 12 12 12 12 12 12 12 12 12 12
12 12 12 12 12 12 12 11 11 11 11 11 11 11 11 11 11 11 11 11 10 10 11 11 11 11 11 11 11 11 11 11 11 11 11 11 11 11
12 12 12 12 12 11 11 11 11 11 11 11 11 11 11 10 10 10 10 10 10 10 10 10 10 10 10 10 11 11 11 11 11 11 11 11 11 11
12 12 12 11 11 11 11 11 11 11 11 11 10 10 10 10 10 10 10 10 10 10 10 10 10 10 10 10 10 10 10 11 11 11 11 11 10 10
12 11 11 11 11 11 11 11 10 10 10 10 10 10 10 10 10 10 10 10 10 10 10 10 10 10 10 9 9 10 10 10 10 10 10 10 10 10
11 11 11 11 11 11 11 10 10 10 10 10 10 10 10 10 10 10 10 10 10 10 10 10 10 9 9 9 9 9 9 9 10 10 10 10 10 10
11 11 11 11 11 11 10 10 10 10 10 10 10 10 10 10 9 9 10 9 9 9 9 9 9 9 9 9 9 9 9 9 9 9 9 9 9 9
11 11 11 11 11 10 10 10 10 10 10 10 10 9 9 9 9 9 9 9 9 9 9 9 9 9 9 9 9 9 9 9 9 9 9 9 9 9
11 10 10 10 10 10 10 10 10 10 10 9 9 9 9 9 9 9 9 9 9 9 9 9 9 8 8 8 8 8 8 8 8 8 8 8 8 9
10 10 10 10 10 10 10 10 10 10 10 9 9 9 9 9 9 9 9 9 9 9 9 9 8 8 8 8 8 8 8 8 8 8 8 8 8 8
10 10 10 10 10 10 10 9 9 9 9 9 9 9 9 9 9 9 9 8 8 8 8 8 8 8 8 7 7 7 8 7 7 7 7 8 8 8
10 10 10 10 10 9 9 9 9 9 9 9 9 9 9 8 8 8 8 8 8 8 8 8 8 8 7 7 7 7 7 7 7 7 7 7 7 7
10 10 10 10 9 9 9 9 9 9 9 8 8 8 8 8 8 8 8 8 8 8 8 7 7 7 7 7 7 7 7 7 7 7 7 7 7 7
Wind_Speed
1 1 1 1 1 1 1 2 2 2 3 3 2 2 2 2 2 2 2 2 3 3 4 4 5 5 5 5 5 5 5 5 6 6 6 6 6 6
0 1 0 1 0 1 1 2 2 3 3 2 2 3 2 2 2 2 2 2 2 3 3 3 4 5 5 5 6 5 5 5 5 5 6 6 6 6
1 1 1 0 0 0 0 1 1 2 2 3 2 2 2 2 2 2 2 1 2 2 2 2 2 3 4 6 6 6 5 5 5 5 6 6 7 7
1 0 1 0 0 0 0 1 1 2 2 3 2 2 2 2 2 1 2 2 2 2 3 3 2 2 2 2 4 5 5 5 5 5 5 6 7 7
2 2 2 1 1 1 1 1 1 1 1 2 2 2 2 2 1 2 2 2 2 3 3 3 3 2 2 2 4 6 6 6 6 6 5 5 6 6
2 2 3 3 2 2 1 1 1 1 1 1 2 2 2 2 1 1 2 2 2 3 3 3 3 3 3 4 4 6 7 7 7 7 7 6 7 7
2 3 3 3 2 2 2 2 2 2 1 1 2 2 2 1 1 1 2 3 2 2 2 2 2 2 3 4 5 6 6 7 8 8 8 8 7 7
3 3 3 2 3 3 3 2 3 3 3 2 2 3 4 3 2 2 2 2 3 1 1 3 2 3 3 3 5 6 6 7 9 9 9 8 8 8
3 3 3 3 2 2 3 2 3 3 4 4 4 5 4 4 3 3 3 3 4 3 1 3 3 3 4 4 6 7 7 7 8 9 9 9 9 8
2 3 4 3 3 1 2 2 3 3 4 3 4 5 4 4 4 3 4 3 3 3 2 3 3 3 4 5 5 5 6 6 6 7 7 8 8 8
2 3 3 3 4 2 1 2 3 3 3 2 3 4 4 3 2 1 1 2 3 3 2 2 2 3 4 4 4 5 5 5 4 4 5 5 6 6
2 2 3 3 4 3 3 3 4 4 3 3 3 3 2 2 3 3 3 3 2 2 1 1 2 2 3 2 2 3 3 3 3 4 4 4 4 3
2 2 3 3 3 4 4 4 6 4 3 2 2 2 1 1 2 3 3 4 3 3 2 1 2 1 2 3 3 2 2 2 2 3 4 4 4 4
3 3 3 4 3 3 3 4 4 3 2 1 2 2 2 2 2 2 3 4 4 4 3 3 2 3 3 4 4 3 3 3 2 3 3 3 4 6
3 4 4 4 3 3 3 3 3 2 2 2 3 3 3 3 2 2 2 2 2 3 3 3 3 3 3 4 3 4 3 3 3 3 3 3 3 2
2 2 3 2 2 2 2 2 2 3 3 3 3 3 2 2 2 2 2 1 1 2 2 2 3 3 3 4 3 4 4 3 3 3 3 3 3 3
1 1 1 1 1 2 2 2 2 2 3 3 3 3 3 2 3 2 2 2 2 2 3 2 2 1 3 3 3 4 4 4 4 3 3 3 4 3
3 2 2 3 3 3 3 3 3 3 3 3 3 3 3 3 3 2 2 2 3 3 2 2 1 1 1 2 3 4 3 4 4 3 3 3 4 3
3 4 4 4 4 4 4 4 4 4 3 3 3 3 3 3 3 3 3 3 3 3 3 2 2 2 3 4 2 3 3 3 3 3 3 3 4 4
4 5 5 5 5 5 5 4 4 3 3 3 3 3 3 3 3 4 3 4 3 3 3 2 3 3 4 4 3 3 4 3 3 3 3 3 3 4
5 6 6 5 5 5 5 4 4 4 3 3 4 4 3 3 3 4 3 4 3 3 3 4 4 3 2 2 2 3 3 3 4 3 3 3 3 3
5 6 6 6 5 5 5 4 4 4 4 4 4 4 3 3 4 4 3 3 3 3 4 3 2 1 1 2 3 4 3 3 3 4 4 4 3 3
6 5 5 5 5 4 4 5 5 4 4 4 4 4 4 4 4 4 4 4 4 4 3 2 2 2 2 3 3 3 4 3 3 2 3 4 5 7
Wind_Direction
171 178 196 238 207 216 200 195 193 252 281 290 296 303 304 306 307 303 288 287 287 279 256 248 248 242 236 233 230 230 234 239 242 241 236 235 237 243
146 71 360 307 239 218 208 214 211 215 249 268 269 293 304 309 322 313 295 318 318 307 287 277 271 254 238 233 228 226 228 234 239 237 233 233 235 237
44 80 334 303 30 297 191 196 213 207 237 275 279 296 284 310 341 333 320 338 334 316 308 300 289 269 249 236 232 229 227 232 240 240 235 234 236 237
231 219 278 273 10 351 350 223 231 219 213 260 290 297 287 299 325 321 334 329 319 321 302 290 276 277 288 260 240 230 228 232 237 238 236 233 232 233
227 233 248 217 256 282 278 260 251 242 225 240 278 290 291 306 322 328 329 319 322 328 321 298 278 280 280 272 256 237 235 237 239 240 237 234 230 227
239 240 240 218 224 238 243 242 242 242 226 238 273 289 285 289 295 307 320 324 312 327 328 322 300 282 272 266 268 255 241 239 240 240 239 239 236 231
260 259 252 244 242 242 248 231 220 226 219 241 267 285 285 286 279 275 288 305 298 300 305 315 316 303 291 278 273 271 257 246 243 242 239 237 235 234
254 269 274 268 281 280 273 239 209 209 213 226 249 257 268 266 262 262 270 290 294 303 285 299 300 288 286 277 277 273 265 255 244 241 238 237 235 234
243 261 276 282 299 287 292 291 260 240 225 220 235 244 247 243 244 261 259 255 263 285 281 285 287 278 281 287 282 271 267 264 252 244 241 237 233 233
242 250 257 269 273 269 288 300 282 267 256 234 227 236 240 237 225 235 247 261 270 274 252 269 281 282 292 291 288 279 277 268 256 247 240 240 238 236
255 254 252 253 261 236 234 270 286 286 279 271 259 255 254 240 204 202 236 257 279 282 239 248 281 291 291 287 291 289 284 282 272 261 256 251 246 241
265 263 253 253 247 230 220 234 262 278 286 296 301 296 279 251 220 206 210 223 252 272 247 241 279 301 299 296 307 318 309 297 290 278 268 262 248 234
242 255 264 266 252 249 235 235 248 256 259 256 263 279 288 260 244 232 213 209 220 247 250 222 256 262 266 294 303 301 301 307 313 296 275 263 250 233
236 246 253 256 255 265 255 251 255 255 245 239 245 260 271 281 276 262 237 223 224 240 242 221 241 249 265 279 285 296 300 299 302 298 298 282 259 246
242 252 259 262 263 263 265 258 246 234 238 244 244 254 256 261 272 269 257 235 251 263 255 239 239 243 244 258 276 290 297 296 291 294 299 293 282 263
252 273 278 279 283 290 296 272 247 233 229 240 249 252 257 257 256 261 266 273 285 298 293 266 241 227 247 253 255 275 282 280 293 301 298 291 285 263
218 286 316 307 306 307 298 289 271 256 248 251 251 256 259 259 267 268 257 253 256 283 304 315 308 251 243 249 254 266 278 280 283 292 294 291 284 275
178 227 246 249 252 258 262 269 266 260 259 256 258 260 261 256 260 263 249 245 253 263 274 287 305 317 296 272 232 254 268 280 292 289 272 270 279 287
200 231 239 242 245 249 251 254 260 262 256 252 255 260 261 261 253 253 249 249 253 254 260 254 247 250 279 291 276 233 258 283 295 296 283 271 274 285
229 238 241 242 244 247 248 252 256 255 251 249 252 255 256 257 259 255 245 249 255 260 264 250 239 238 249 270 279 280 257 259 275 282 284 286 282 279
240 243 245 244 245 246 247 250 251 252 255 252 252 254 253 252 256 256 251 244 247 253 260 266 265 251 242 244 269 287 283 265 259 263 270 278 285 285
246 247 247 246 244 245 246 245 245 249 252 252 255 255 252 247 250 252 250 244 244 249 261 276 284 232 231 244 265 277 289 299 292 268 252 242 249 263
247 247 247 243 241 240 239 239 240 245 248 247 248 250 250 246 246 245 246 245 246 249 254 262 262 250 246 242 254 265 273 287 296 308 309 308 263 256
Height
1524 1524 1523 1523 1522 1522 1522 1522 1522 1520 1520 1519 1520 1520 1520 1520 1520 1519 1519 1520 1520 1521 1521 1521 1522 1522 1522 1523 1524 1524 1524 1524 1525 1525 1525 1525 1526 1526
1522 1522 1521 1521 1520 1520 1520 1519 1519 1519 1517 1517 1517 1517 1517 1517 1517 1517 1517 1517 1517 1517 1517 1518 1518 1518 1519 1519 1520 1520 1521 1521 1521 1521 1522 1522 1522 1522
1520 1520 1519 1519 1518 1518 1517 1517 1517 1516 1515 1514 1514 1514 1514 1514 1514 1514 1514 1513 1513 1514 1514 1514 1515 1515 1515 1515 1516 1516 1517 1517 1517 1518 1518 1518 1519 1519
1518 1518 1517 1516 1516 1515 1515 1515 1514 1514 1513 1512 1511 1512 1511 1511 1511 1511 1511 1510 1510 1510 1511 1511 1511 1511 1511 1511 1511 1512 1512 1513 1513 1514 1514 1515 1515 1516
1516 1515 1515 1514 1513 1513 1512 1512 1511 1511 1510 1510 1509 1509 1508 1508 1508 1508 1508 1508 1507 1507 1507 1507 1507 1507 1507 1508 1508 1508 1508 1508 1509 1510 1510 1510 1511 1511
1513 1512 1512 1511 1511 1510 1509 1509 1508 1508 1507 1507 1506 1506 1506 1505 1505 1504 1504 1504 1504 1504 1504 1504 1504 1504 1504 1504 1504 1504 1504 1504 1504 1505 1505 1506 1507 1507
1510 1510 1509 1509 1508 1508 1507 1505 1505 1504 1504 1504 1503 1503 1502 1502 1502 1502 1501 1501 1501 1501 1501 1501 1501 1500 1500 1500 1500 1500 1500 1500 1500 1500 1501 1501 1502 1502
1507 1507 1506 1506 1505 1504 1503 1502 1502 1501 1500 1500 1500 1499 1499 1499 1499 1499 1498 1498 1497 1499 1498 1497 1498 1497 1497 1497 1496 1496 1496 1496 1496 1496 1496 1496 1497 1497
1505 1504 1503 1502 1502 1501 1499 1499 1498 1498 1498 1497 1496 1496 1496 1496 1495 1495 1495 1495 1495 1495 1495 1493 1494 1493 1493 1493 1492 1492 1492 1491 1491 1491 1491 1491 1492 1492
1502 1501 1500 1499 1498 1497 1496 1495 1495 1494 1494 1494 1493 1493 1493 1493 1493 1493 1492 1492 1491 1492 1491 1490 1490 1490 1489 1489 1489 1488 1488 1487 1487 1486 1486 1487 1487 1487
1498 1498 1497 1496 1495 1494 1493 1492 1491 1491 1491 1490 1490 1490 1490 1490 1489 1489 1489 1488 1487 1488 1488 1487 1486 1486 1485 1485 1485 1484 1484 1483 1483 1482 1482 1482 1482 1482
1495 1495 1494 1493 1492 1491 1490 1489 1488 1487 1487 1487 1487 1486 1486 1486 1486 1486 1486 1485 1484 1484 1484 1484 1483 1483 1481 1481 1481 1481 1480 1480 1479 1479 1478 1478 1478 1477
1492 1491 1491 1490 1489 1488 1487 1486 1485 1484 1484 1483 1483 1483 1483 1482 1482 1482 1482 1482 1482 1481 1481 1481 1480 1479 1479 1478 1477 1477 1476 1476 1475 1475 1475 1474 1474 1473
1488 1488 1488 1488 1487 1485 1484 1483 1482 1481 1481 1480 1480 1479 1479 1479 1479 1479 1479 1479 1479 1479 1478 1478 1477 1476 1475 1474 1474 1473 1473 1472 1471 1471 1470 1470 1469 1469
1485 1485 1485 1484 1484 1483 1482 1481 1480 1479 1478 1477 1476 1476 1476 1477 1477 1477 1476 1476 1476 1475 1475 1474 1474 1473 1472 1471 1470 1470 1469 1468 1468 1467 1466 1466 1465 1464
1482 1482 1482 1481 1480 1480 1479 1478 1477 1476 1475 1474 1474 1474 1474 1474 1474 1473 1473 1473 1472 1472 1472 1471 1470 1470 1469 1468 1467 1466 1466 1465 1464 1463 1462 1462 1461 1461
1479 1479 1478 1478 1477 1476 1476 1475 1474 1473 1472 1472 1470 1470 1469 1470 1470 1470 1470 1469 1469 1468 1468 1468 1467 1466 1465 1465 1463 1463 1462 1461 1461 1460 1459 1458 1458 1457
1476 1475 1474 1474 1473 1472 1472 1471 1471 1470 1469 1468 1468 1467 1466 1466 1467 1466 1466 1466 1465 1465 1464 1464 1464 1463 1463 1461 1461 1460 1459 1458 1457 1456 1455 1454 1454 1454
1471 1470 1470 1470 1469 1469 1468 1468 1467 1466 1466 1465 1464 1464 1463 1463 1463 1463 1462 1462 1462 1461 1461 1461 1460 1460 1458 1458 1457 1457 1456 1455 1454 1453 1452 1452 1451 1450
1466 1466 1466 1465 1465 1465 1464 1464 1463 1462 1461 1461 1460 1460 1460 1459 1459 1459 1459 1459 1458 1458 1457 1457 1457 1456 1455 1455 1454 1453 1453 1452 1450 1449 1449 1448 1448 1448
1462 1462 1461 1461 1460 1460 1459 1459 1459 1458 1458 1457 1456 1456 1456 1456 1455 1455 1455 1455 1455 1454 1453 1453 1453 1453 1452 1452 1451 1450 1449 1449 1448 1447 1446 1445 1445 1444
1457 1457 1457 1456 1456 1455 1455 1454 1454 1454 1454 1453 1453 1452 1452 1452 1452 1452 1451 1451 1451 1450 1450 1450 1450 1449 1449 1448 1447 1446 1446 1445 1445 1444 1444 1443 1442 1441
1452 1452 1452 1451 1450 1450 1450 1450 1450 1450 1450 1449 1449 1448 1448 1448 1448 1448 1448 1447 1447 1447 1446 1446 1446 1445 1445 1445 1444 1443 1442 1442 1441 1441 1441 1440 1440 1439